This is the latest recevied weather packets stored in our database for station/object OK1LPD-6. If no packets are shown the sender has not sent any weather packets the latest 10 day(s).
| Time | Temp. | Humidity | Pressure | Rain* | Wind** | Luminosity | Snow |
|---|---|---|---|---|---|---|---|
| 1777619699 | 15.56° C | 41% | 1029.6 hPa | 0 mm | - | - | - |
| 1777619079 | 13.89° C | 43% | 1029.4 hPa | 0 mm | - | - | - |
| 1777618479 | 13.33° C | 43% | 1029.5 hPa | 0 mm | - | - | - |
| 1777617897 | 12.22° C | 45% | 1029.6 hPa | 0 mm | - | - | - |
| 1777617279 | 12.22° C | 51% | 1029.6 hPa | 0 mm | - | - | - |
| 1777616679 | 12.22° C | 52% | 1029.6 hPa | 0 mm | - | - | - |
| 1777616100 | 11.67° C | 52% | 1029.6 hPa | 0 mm | - | - | - |
| 1777615479 | 10° C | 57% | 1029.6 hPa | 0 mm | - | - | - |
| 1777614880 | 9.44° C | 57% | 1029.5 hPa | 0 mm | - | - | - |
| 1777614298 | 8.89° C | 60% | 1029.5 hPa | 0 mm | - | - | - |
| 1777613679 | 8.33° C | 60% | 1029.6 hPa | 0 mm | - | - | - |
| 1777613080 | 8.33° C | 60% | 1029.6 hPa | 0 mm | - | - | - |
| 1777612501 | 7.78° C | 62% | 1029.8 hPa | 0 mm | - | - | - |
| 1777611880 | 7.22° C | 68% | 1029.9 hPa | 0 mm | - | - | - |
| 1777611280 | 6.11° C | 70% | 1029.7 hPa | 0 mm | - | - | - |
| 1777610698 | 6.11° C | 72% | 1029.8 hPa | 0 mm | - | - | - |
| 1777610080 | 5° C | 75% | 1029.6 hPa | 0 mm | - | - | - |
| 1777609480 | 4.44° C | 80% | 1029.6 hPa | 0 mm | - | - | - |
| 1777608901 | 3.89° C | 82% | 1029.7 hPa | 0 mm | - | - | - |
| 1777608281 | 2.22° C | 82% | 1029.5 hPa | 0 mm | - | - | - |
| 1777607681 | 2.22° C | 82% | 1029.7 hPa | 0 mm | - | - | - |
| 1777607098 | 2.22° C | 82% | 1029.6 hPa | 0 mm | - | - | - |
| 1777606480 | 2.22° C | 82% | 1029.6 hPa | 0 mm | - | - | - |
| 1777605881 | 2.22° C | 82% | 1029.5 hPa | 0 mm | - | - | - |
| 1777605302 | 2.22° C | 82% | 1029.5 hPa | 0 mm | - | - | - |
* Rain latest hour (hover to see other rain measurements)
** Current wind speed in m/s (hover to see current wind gust speed)